Weather History for KLMT - February, 2012

Change the Weather History Date:

Monday, February 13, 2012

  Actual Average Record
Temperature  
Mean Temperature 34 °F 34 °F  
Max Temperature 37 °F 44 °F 61 °F (1996)
Min Temperature 31 °F 24 °F 5 °F (1989)
Degree Days  
Heating Degree Days 31 31  
Month to date heating degree days 364 418  
Since 1 July heating degree days 4149 4398  
Cooling Degree Days 0 0  
Month to date cooling degree days 0 0  
Year to date cooling degree days 0 0  
Moisture  
Dew Point 30 °F    
Average Humidity 91    
Maximum Humidity 100    
Minimum Humidity 70    
Precipitation  
Precipitation 0.09 in 0.07 in 0.51 in (1945)
Month to date precipitation 0.32 0.89  
Year to date precipitation 1.68 2.74  
Snow  
Snow 0.00 in - - ()
Snow Depth 0.00 in    
Sea Level Pressure  
Sea Level Pressure 29.82 in    
Wind  
Wind Speed 7 mph (West)    
Max Wind Speed 17 mph    
Max Gust Speed 20 mph    
Visibility 4 miles    
Events Fog , Snow    
T = Trace of Precipitation, MM = Missing Value Source: NWS Daily Summary

Daily Weather History Graph

Daily Weather History Graph

Search for Another Location

Airport or City:

Trip Planner

Search our weather history database for the weather conditions in past years. The results will help you decide how hot, cold, wet, or windy it might be!

Date:

Astronomy

Feb. 13, 2012 Rise Set
Actual Time 7:06 AM PST 5:36 PM PST
Civil Twilight 6:37 AM PST 6:05 PM PST
Nautical Twilight 6:04 AM PST 6:38 PM PST
Astronomical Twilight 5:32 AM PST 7:10 PM PST
Moon No Moon Rise 10:00 AM PST (2/13)
Length of Visible Light 11h 28m
Length of Day
10h 30m
Waning Gibbous, 60% of the Moon is Illuminated
Feb 13
Waning Gibbous
Feb 14
Last Quarter
Feb 21
New
Feb 29
First Quarter
Mar 8
Full

Hourly Weather History & Observations

Time (PST) Temp. Windchill Dew Point Humidity Pressure Visibility Wind Dir Wind Speed Gust Speed Precip Events Conditions
12:18 AM 33.8 °F 27.7 °F 32.0 °F 93% 29.75 in 2.0 mi SSE 6.9 mph - 0.01 in Snow Light Snow
12:27 AM 33.8 °F 27.0 °F 32.0 °F 93% 29.75 in 2.0 mi South 8.1 mph - 0.01 in Snow Light Snow
12:39 AM 33.8 °F 27.7 °F 32.0 °F 93% 29.75 in 1.5 mi SSE 6.9 mph - 0.01 in Snow Light Snow
12:49 AM 33.8 °F 27.0 °F 32.0 °F 93% 29.75 in 2.0 mi South 8.1 mph - 0.02 in Snow Light Snow
12:53 AM 33.1 °F 27.7 °F 32.0 °F 96% 29.75 in 2.0 mi South 5.8 mph - 0.02 in Snow Light Snow
1:03 AM 33.8 °F 27.0 °F 32.0 °F 93% 29.74 in 1.8 mi SSE 8.1 mph - 0.00 in Snow Light Snow
1:10 AM 33.8 °F 27.0 °F 32.0 °F 93% 29.74 in 2.5 mi SSE 8.1 mph - 0.00 in Snow Light Snow
1:16 AM 33.8 °F 27.0 °F 32.0 °F 93% 29.74 in 3.0 mi SSE 8.1 mph - 0.00 in Snow Light Snow
1:19 AM 33.8 °F 27.0 °F 32.0 °F 93% 29.74 in 3.0 mi SSE 8.1 mph - 0.00 in Snow Light Snow
1:27 AM 33.8 °F 27.0 °F 32.0 °F 93% 29.74 in 2.5 mi SSE 8.1 mph - 0.00 in Snow Light Snow
1:53 AM 33.1 °F 26.1 °F 32.0 °F 96% 29.75 in 2.5 mi SSE 8.1 mph - 0.00 in Snow Light Snow
2:11 AM 33.8 °F 27.7 °F 32.0 °F 93% 29.75 in 2.5 mi SSE 6.9 mph - 0.00 in Snow Light Snow
2:37 AM 33.8 °F 27.7 °F 32.0 °F 93% 29.75 in 1.5 mi SW 6.9 mph - 0.01 in Snow Light Snow
2:47 AM 33.8 °F - 32.0 °F 93% 29.75 in 2.0 mi Calm Calm - 0.01 in Snow Light Snow
2:53 AM 33.1 °F - 32.0 °F 96% 29.74 in 3.0 mi Calm Calm - 0.01 in Snow Light Snow
3:03 AM 32.0 °F - 32.0 °F 100% 29.75 in 7.0 mi Calm Calm - 0.00 in   Overcast
3:20 AM 30.2 °F - 30.2 °F 100% 29.75 in 4.0 mi Calm Calm - 0.00 in   Overcast
3:29 AM 30.2 °F - 30.2 °F 100% 29.75 in 2.5 mi Calm Calm - 0.00 in   Overcast
3:37 AM 30.2 °F - 30.2 °F 100% 29.75 in 0.8 mi Calm Calm - 0.00 in   Overcast
3:50 AM 30.2 °F - 30.2 °F 100% 29.75 in 0.2 mi Calm Calm - 0.00 in Fog Light Freezing Fog
3:53 AM 30.9 °F - 30.9 °F 100% 29.76 in 0.2 mi Calm Calm - 0.00 in Fog Light Freezing Fog
3:56 AM 30.2 °F - 30.2 °F 100% 29.75 in 0.2 mi Calm Calm - N/A Fog Light Freezing Fog
4:02 AM 30.2 °F 26.7 °F 30.2 °F 100% 29.75 in 1.0 mi SW 3.5 mph - 0.00 in Snow Light Snow
4:07 AM 30.2 °F 26.7 °F 30.2 °F 100% 29.75 in 3.0 mi Variable 3.5 mph - 0.00 in Snow Light Snow
4:53 AM 32.0 °F - 30.9 °F 96% 29.77 in 3.0 mi Calm Calm - 0.01 in Snow Light Snow
5:17 AM 32.0 °F - 30.2 °F 93% 29.76 in 2.5 mi Calm Calm - 0.00 in Snow Light Snow
5:53 AM 30.9 °F - 30.9 °F 100% 29.79 in 2.0 mi Calm Calm - 0.01 in Snow Light Snow
6:00 AM 30.2 °F - 30.2 °F 100% 29.76 in 2.0 mi Calm Calm - 0.00 in Snow Light Snow
6:44 AM 30.2 °F - 30.2 °F 100% 29.77 in 1.0 mi Calm Calm - 0.01 in Snow Light Snow
6:53 AM 30.9 °F - 30.9 °F 100% 29.81 in 1.0 mi Calm Calm - 0.02 in Snow Light Snow
7:27 AM 32.0 °F 26.4 °F 30.2 °F 93% 29.78 in 0.8 mi WNW 5.8 mph - 0.01 in Snow Light Snow
7:53 AM 32.0 °F 26.4 °F 30.9 °F 96% 29.83 in 0.8 mi WNW 5.8 mph - 0.02 in Snow Light Snow
8:27 AM 32.0 °F 23.0 °F 30.2 °F 93% 29.81 in 1.2 mi NW 11.5 mph - 0.01 in Snow Light Snow
8:53 AM 32.0 °F 23.0 °F 30.9 °F 96% 29.85 in 1.2 mi NW 11.5 mph - 0.01 in Snow Light Snow
8:57 AM 32.0 °F 23.6 °F 30.2 °F 93% 29.81 in 2.5 mi NW 10.4 mph - 0.00 in Snow Light Snow
9:03 AM 32.0 °F 24.2 °F 30.2 °F 93% 29.81 in 4.0 mi NW 9.2 mph - 0.00 in Snow Light Snow
9:12 AM 32.0 °F 24.2 °F 30.2 °F 93% 29.82 in 8.0 mi NW 9.2 mph - 0.00 in   Mostly Cloudy
9:53 AM 32.0 °F 25.6 °F 30.0 °F 92% 29.86 in 10.0 mi WNW 6.9 mph - 0.00 in   Mostly Cloudy
10:53 AM 35.1 °F 26.4 °F 30.0 °F 82% 29.87 in 10.0 mi NW 12.7 mph - N/A   Mostly Cloudy
11:53 AM 35.1 °F 27.4 °F 30.0 °F 82% 29.88 in 10.0 mi West 10.4 mph - N/A   Mostly Cloudy
12:53 PM 36.0 °F 27.5 °F 30.9 °F 82% 29.88 in 10.0 mi West 12.7 mph - N/A   Overcast
1:48 PM 37.4 °F 30.8 °F 30.2 °F 75% 29.86 in 10.0 mi WNW 9.2 mph - N/A   Overcast
1:53 PM 36.0 °F 27.5 °F 30.0 °F 79% 29.88 in 10.0 mi WNW 12.7 mph - N/A   Overcast
2:53 PM 36.0 °F 28.5 °F 30.0 °F 79% 29.91 in 10.0 mi West 10.4 mph - N/A   Overcast
3:53 PM 35.1 °F 26.9 °F 30.0 °F 82% 29.93 in 10.0 mi West 11.5 mph - N/A   Overcast
4:53 PM 35.1 °F 26.9 °F 28.9 °F 78% 29.94 in 10.0 mi West 11.5 mph - N/A   Overcast
5:53 PM 34.0 °F 26.6 °F 28.9 °F 82% 29.95 in 10.0 mi WNW 9.2 mph - N/A   Overcast
6:53 PM 34.0 °F 28.0 °F 28.0 °F 79% 29.97 in 7.0 mi WNW 6.9 mph - N/A   Overcast
7:53 PM 35.1 °F 27.9 °F 27.0 °F 72% 29.98 in 7.0 mi NW 9.2 mph - N/A   Overcast
8:50 PM 33.8 °F 28.6 °F 28.4 °F 81% 29.96 in 7.0 mi NNW 5.8 mph - N/A   Overcast
8:53 PM 34.0 °F 28.0 °F 28.0 °F 79% 30.00 in 7.0 mi NNW 6.9 mph - N/A   Overcast
9:53 PM 34.0 °F 29.8 °F 27.0 °F 75% 30.01 in 7.0 mi WNW 4.6 mph - N/A   Overcast
10:53 PM 33.1 °F 27.7 °F 27.0 °F 78% 30.01 in 10.0 mi West 5.8 mph - N/A   Overcast
11:53 PM 33.1 °F 24.4 °F 27.0 °F 78% 30.00 in 10.0 mi WNW 11.5 mph - N/A   Overcast